Flag for Iran Weather past 2 weeks in Behbahan, Iran

Now
81 °F

Clear.


Feels Like: 80 °F
Forecast: 77 / 114 °F
Wind: No wind

Location: Gach Saran Du Gunbadan

Current Time: Aug 5, 2015 at 4:52:13 AM

Latest Report: Aug 5, 2015 at 4:30 AM


Visibility: 10 mi

Pressure: 29.74 "Hg

Humidity: 30%

Dew point: 46 °F

Location of BehbahanLocation

Historic Weather in Behbahan — Graph

°F

Behbahan temperature yesterday

Maximum temperature yesterday: 109 °F (at 3:30 PM)
Minimum temperature yesterday: 81 °F (at 5:30 AM)
Average temperature yesterday: 95 °F

Past Weeks' High & Low Weather Summary

 TemperatureHumidityPressure
High113 °F (Jul 30, 1:30 PM)48% (Jul 23, 5:30 AM)29.80 "Hg (Jul 23, 5:30 AM)
Low79 °F (Aug 2, 6:30 AM)3% (Aug 2, 3:30 PM)29.56 "Hg (Jul 26, 6:30 PM)
Average96 °F17%29.69 "Hg
* Reported Jul 21 3:30 AM — Aug 5 3:30 AM, Behbahan, Weather by CustomWeather, © 2015

Note: Actual official high and low records may vary slightly from our data, if they occured in-between our weather recording intervals... More about our weather records

Advertising

Behbahan weather history for previous 24 hours

 ConditionsComfort  
Time TempWeatherWind HumidityBarometerVisibility
3:30 AM
Wed, Aug 5
82 °FClear.No wind28%29.77 "Hg10 mi
2:30 AM82 °FClear.No wind28%29.77 "Hg10 mi
1:30 AM86 °FClear.No wind25%29.77 "Hg10 mi
12:30 AM88 °FClear.2 mph22%29.77 "Hg10 mi
11:30 PM
Tue, Aug 4
90 °FClear.2 mph21%29.77 "Hg10 mi
10:30 PM91 °FClear.No wind18%29.77 "Hg10 mi
9:30 PM95 °FClear.7 mph16%29.77 "Hg10 mi
8:30 PM97 °FSunny.9 mph20%29.77 "Hg10 mi
7:30 PM99 °FPassing clouds.7 mph21%29.74 "HgN/A
6:30 PM100 °FPassing clouds.9 mph21%29.74 "HgN/A
5:30 PM102 °FPassing clouds.12 mph18%29.74 "HgN/A
4:30 PM106 °FPassing clouds.14 mph15%29.71 "HgN/A
3:30 PM109 °FPassing clouds.7 mph4%29.71 "HgN/A
2:30 PM108 °FPassing clouds.7 mph5%29.74 "HgN/A
1:30 PM108 °FSunny.7 mph4%29.77 "Hg10 mi
12:30 PM106 °FSunny.12 mph4%29.77 "Hg10 mi
11:30 AM106 °FSunny.14 mph5%29.80 "Hg10 mi
10:30 AM102 °FSunny.16 mph5%29.80 "Hg10 mi
9:30 AM100 °FSunny.16 mph5%29.80 "Hg10 mi
8:30 AM97 °FPassing clouds.14 mph6%29.80 "HgN/A
7:30 AM84 °FClear.No wind31%29.80 "Hg10 mi
6:30 AM81 °FPassing clouds.No wind26%29.80 "HgN/A
5:30 AM81 °FPassing clouds.No wind28%29.77 "HgN/A
4:30 AM84 °FClear.No wind29%29.77 "Hg10 mi
Weather by CustomWeather, © 2015

See weather overviewHow to use our weather pages